Rome, NY

6:57 AM EDT on July 21, 2017 (GMT -0400)
Griffiss

Weather History for KRME - August, 2014

Change the Weather History Date:

Sunday, August 24, 2014

  Actual Average Record
Temperature  
Mean Temperature 67 °F -  
Max Temperature 81 °F 74 °F 90 °F (1993)
Min Temperature 54 °F 56 °F 44 °F (1965)
Cooling Degree Days 2    
Growing Degree Days 17 (Base 50)    
Moisture  
Dew Point 58 °F    
Average Humidity 76    
Maximum Humidity 100    
Minimum Humidity 47    
Precipitation  
Precipitation 0.00 in - - ()
Sea Level Pressure  
Sea Level Pressure 30.18 in    
Wind  
Wind Speed 2 mph (SSW)    
Max Wind Speed 8 mph    
Max Gust Speed -    
Visibility 10 miles    
Events      
Averages and records for this station are not official NWS values.
T = Trace of Precipitation, MM = Missing Value Source: NWS Daily Summary

Daily Weather History Graph

Daily Weather History Graph

Search for Another Location

Airport or City:

Trip Planner

Search our weather history database for the weather conditions in past years. The results will help you decide how hot, cold, wet, or windy it might be!

Date:

Astronomy

Aug. 24, 2014 Rise Set
Actual Time 6:16 AM EDT 7:50 PM EDT
Civil Twilight 5:46 AM EDT 8:20 PM EDT
Nautical Twilight 5:10 AM EDT 8:56 PM EDT
Astronomical Twilight 4:31 AM EDT 9:34 PM EDT
Moon 5:25 AM EDT (8/24) 7:06 PM EDT (8/24)
Length of Visible Light 14h 33m
Length of Day
13h 33m
Waning Crescent, 1% of the Moon is Illuminated
Aug 24
Waning Crescent
Aug 25
New
Sep 2
First Quarter
Sep 8
Full
Sep 15
Last Quarter

Hourly Weather History & Observations

Time (EDT) Temp. Heat Index Dew Point Humidity Pressure Visibility Wind Dir Wind Speed Gust Speed Precip Events Conditions
12:53 AM 59.0 °F - 57.0 °F 93% 30.17 in 10.0 mi Calm Calm - N/A   Clear
1:53 AM 57.0 °F - 55.9 °F 96% 30.17 in 10.0 mi Calm Calm - N/A   Clear
2:53 AM 57.0 °F - 55.9 °F 96% 30.18 in 10.0 mi SSE 3.5 mph - N/A   Clear
3:53 AM 55.9 °F - 55.0 °F 97% 30.19 in 10.0 mi Calm Calm - N/A   Clear
4:53 AM 55.0 °F - 54.0 °F 96% 30.19 in 10.0 mi Calm Calm - N/A   Clear
5:53 AM 54.0 °F - 54.0 °F 100% 30.20 in 10.0 mi Calm Calm - N/A   Clear
6:53 AM 54.0 °F - 54.0 °F 100% 30.21 in 10.0 mi Calm Calm - N/A   Clear
7:53 AM 57.9 °F - 55.9 °F 93% 30.22 in 10.0 mi Calm Calm - N/A   Clear
8:53 AM 62.1 °F - 57.9 °F 86% 30.22 in 10.0 mi Calm Calm - N/A   Clear
9:53 AM 68.0 °F - 59.0 °F 73% 30.22 in 10.0 mi Calm Calm - N/A   Clear
10:53 AM 71.1 °F - 60.1 °F 68% 30.21 in 10.0 mi Variable 3.5 mph - N/A   Clear
11:53 AM 73.9 °F - 60.1 °F 62% 30.19 in 10.0 mi SSW 3.5 mph - N/A   Clear
12:53 PM 77.0 °F - 59.0 °F 54% 30.19 in 10.0 mi SE 4.6 mph - N/A   Partly Cloudy
1:53 PM 79.0 °F - 59.0 °F 50% 30.17 in 10.0 mi Variable 4.6 mph - N/A   Partly Cloudy
2:53 PM 79.0 °F - 57.0 °F 47% 30.15 in 10.0 mi WSW 3.5 mph - N/A   Mostly Cloudy
3:53 PM 79.0 °F - 57.9 °F 48% 30.14 in 10.0 mi South 3.5 mph - N/A   Mostly Cloudy
4:53 PM 80.1 °F 80.7 °F 59.0 °F 48% 30.13 in 10.0 mi North 3.5 mph - N/A   Clear
5:53 PM 79.0 °F - 59.0 °F 50% 30.13 in 10.0 mi WSW 4.6 mph - N/A   Mostly Cloudy
6:53 PM 77.0 °F - 60.1 °F 56% 30.14 in 10.0 mi WNW 8.1 mph - N/A   Clear
7:53 PM 73.0 °F - 61.0 °F 66% 30.15 in 10.0 mi NNW 4.6 mph - N/A   Mostly Cloudy
8:53 PM 71.1 °F - 62.1 °F 73% 30.17 in 10.0 mi Calm Calm - N/A   Overcast
10:53 PM 64.0 °F - 62.1 °F 93% 30.17 in 10.0 mi ESE 3.5 mph - N/A   Clear
11:53 PM 63.0 °F - 61.0 °F 93% 30.18 in 10.0 mi ESE 3.5 mph - N/A   Clear